Regional Weather Roundup
Issued by NWS Wakefield, VA

Home | Current Version | Previous Version | Graphics & Text | Print | Product List | Glossary On
Versions: 1 2 3 4 5 6 7 8 9 10 11 12 13 14 15 16 17 18 19 20 21 22 23 24 25 26 27
000
ASUS41 KAKQ 161016
RWRAKQ

REGIONAL WEATHER ROUNDUP
NATIONAL WEATHER SERVICE WAKEFIELD VA
500 AM EST SAT DEC 16 2017

Note: "fair" indicates few or no clouds below 12,000 feet with no
significant weather and/or obstructions to visibility. * = Denotes
station may not report precipitation (e.g., rain,snow,etc.),
thunder or fog.

VAZ042-051-052>054-056-161100-
NORTHERN VIRGINIA

CITY           SKY/WX    TMP DP  RH WIND       PRES   REMARKS
WASH NATIONAL  PTCLDY    29  21  72 SW6       30.11R
DULLES         PTCLDY    24  20  84 SW7       30.09R
FORT BELVOIR   CLOUDY    24  21  89 CALM      30.11R
QUANTICO       CLOUDY    26  23  88 NW7       30.13S
FREDERICKSBRG* PTCLDY    22  20  93 SW6       30.12R
STAFFORD*      PTCLDY    22  22 100 CALM      30.17R
WARRENTON      CLOUDY    25  20  83 CALM      30.11R
CULPEPER*      CLOUDY    20  17  88 CALM      30.12R
MANASSAS*      CLOUDY    21  19  92 CALM      30.12R
LEESBURG*      CLEAR     32  23  69 SW6       30.09R
WINCHESTER     PTCLDY    32  18  55 W8        30.06R
FRONT ROYAL*   CLOUDY    32  19  59 W3        30.06R
LURAY*         CLOUDY    32  19  59 SW12G17   30.07R WCI  23
$$

VAZ048-049-060>072-079>083-161100-
CENTRAL AND SOUTH CENTRAL VIRGINIA

CITY           SKY/WX    TMP DP  RH WIND       PRES   REMARKS
RICHMOND       CLEAR     32  19  58 W3        30.14R
CHESTERFIELD*  NOT AVBL
PETERSBURG*    CLEAR     23  16  74 W7        30.16R
HANOVER        CLEAR     22  19  89 CALM      30.15R
TAPPAHANNOCK*  CLEAR     25  19  79 SW5       30.14R
QUINTON*       FAIR      22  20  91 CALM      30.13S
CHARLOTTSVILLE CLOUDY    27  17  66 SE3       30.10R
GORDONSVILLE*  MOSUNNY   17  15  93 CALM      30.12R
ORANGE*        CLEAR     18  14  86 CALM      30.11R
LOUISA*        CLEAR     24  16  70 SW5       30.17R
BUMPASS*       FAIR      23  17  79 SW3       30.12R
FARMVILLE*     CLEAR     27  22  82 SW3       30.13R
CREWE*         FAIR      28  19  69 W3        30.14R
FORT PICKETT*  NOT AVBL
CHASE CITY*    FAIR      28  19  70 CALM      30.15R
CLARKSVILLE*   FAIR      27  21  80 SW3       30.17R
SOUTH HILL*    CLEAR     30  20  67 W6        30.22R
LAWRENCEVILLE* FAIR      25  19  77 CALM      30.16R
EMPORIA*       CLEAR     27  19  74 CALM      30.18R
$$

VAZ088>098-161100-
SOUTHEAST VIRGINIA

CITY           SKY/WX    TMP DP  RH WIND       PRES   REMARKS
NORFOLK        CLEAR     31  25  78 W3        30.15R
VIRGINIA BEACH CLEAR     26  20  77 SW3       30.15R
NORFOLK NAVAL  CLEAR     33  24  69 W3        30.16R
WEST POINT*    CLEAR    N/A N/A N/A CALM      30.16S
SALUDA*        FAIR      24  20  85 CALM      30.14R
NEWPORT NEWS   CLEAR     24  20  84 CALM      30.15R
LANGLEY AFB    CLEAR     28  22  79 W6        30.14R
FORT EUSTIS    CLEAR     28  22  75 CALM      30.13R
WILLIAMSBURG*  CLEAR     27  23  86 CALM      30.16R
HR EXEC AP*    FAIR      18  16  92 S3        30.17R
FRANKLIN*      CLEAR     23  20  90 CALM      30.18R
US460-WAKEFLD  CLEAR     22  20  92 CALM      30.16R
$$

VAZ020-022-025-037-045-161100-
WEST CENTRAL AND SOUTHWEST VIRGINIA

CITY           SKY/WX    TMP DP  RH WIND       PRES   REMARKS
STAUNTON*      CLOUDY    28  17  62 S3        30.09R
WAYNESBORO*    CLOUDY    26  16  67 CALM      30.06R
HOT SPRINGS VA CLOUDY    23  15  71 W22G31    29.94R WCI   8
LYNCHBURG      PTCLDY    28  18  66 SW5       30.12R
DANVILLE       CLEAR     23  19  85 SW3       30.16S
SOUTH BOSTON*  FAIR      23  17  77 CALM      30.17R
MARTINSVILLE   CLEAR     20  17  86 CALM      30.17S
ROANOKE        CLOUDY    34  18  52 W10       30.13R
BLACKSBURG     CLOUDY    30  20  67 W7        30.12R
DUBLIN*        CLOUDY    31  20  62 W10       30.10S WCI  23
MARION*        CLOUDY    26  20  80 W14G21    30.11S WCI  14
HILLSVILLE*    CLEAR     27  18  71 W13       30.05S WCI  16
RICHLANDS*     FAIR      25  19  78 SW5       30.11S
WISE*          PTCLDY    27  21  80 SW7       30.12S
ABINGDON*      CLOUDY    26  23  87 W5        30.16S
$$

MDZ021>025-VAZ099-100-161100-
SOUTHERN MARYLAND AND THE DELMARVA PENINSULA

CITY           SKY/WX    TMP DP  RH WIND       PRES   REMARKS
PATUXENT RIVER CLEAR     23  21  92 NE3       30.12R
BAY BRIDGE APT CLEAR     32  25  74 MISG      30.09F
LEONARDTOWN    CLEAR     28  23  80 W3        30.13R
DOVER          PTCLDY    26  26 100 W9        30.09R
GEORGETOWN     CLEAR     24  21  88 SW3       30.11R FOG
EASTON         CLOUDY    31  24  78 CALM      30.13R
CAMBRIDGE      CLOUDY    27  25  93 SW6       30.11R
SALISBURY      CLEAR     27  25  92 W6        30.11R
OCEAN CITY     CLEAR     28  26  92 W7        30.12R
WALLOPS ISLAND CLEAR     30  26  85 W5        30.13R
ACCOMACK*      CLEAR     26  25  94 CALM      30.13R
$$

NCZ012>017-030>032-161100-
NORTH CENTRAL AND EASTERN NORTH CAROLINA

CITY           SKY/WX    TMP DP  RH WIND       PRES   REMARKS
ROANOKE RAPIDS FAIR      27  23  86 S5        30.17R
RALEIGH        PTCLDY    27  21  78 CALM      30.19R
ELIZABETH CITY CLEAR     27  24  89 W3        30.16R
AHOSKIE*       CLEAR     26  22  87 CALM      30.17S
EDENTON*       CLEAR     34  27  75 NW5       30.18R
CURRITUCK*     CLEAR     29  25  84 W3        30.16R
KILL DEVIL HLS CLEAR     33  26  75 CALM      30.13R
MANTEO         CLEAR     35  26  71 NW6       30.16R
CAPE HATTERAS  CLEAR     39  29  67 NW7       30.15R
TARBORO*       NOT AVBL
GOLDSBORO      CLEAR     31  22  68 CALM      30.18R
WASHINGTON     CLEAR     31  23  71 CALM      30.19R
GREENVILLE     CLEAR     32  23  69 CALM      30.20R
NEW BERN       CLEAR     31  24  75 NW3       30.20R
WILMINGTON     PTCLDY    34  27  75 NW3       30.21R
$$

VAZ048-161100-
ELSEWHERE

CITY           SKY/WX    TMP DP  RH WIND       PRES   REMARKS
HARRISBURG PA  MOCLDY    25  19  78 CALM      30.01S
BALTIMORE      PTCLDY    25  22  88 SW8       30.08R
ANNAPOLIS      CLEAR     25  23  92 CALM      30.10R
ANDREWS AFB    CLEAR     25  21  84 SW8       30.09R
PHILADELPHIA   PTCLDY    21  16  81 SW7       30.05F
HENDERSON NC   CLEAR     24  17  73 W3        30.16R
GREENSBORO     PTCLDY    27  18  69 SW6       30.16R
ROCKY MOUNT    CLEAR     30  22  72 CALM      30.18S
$$

VAZ100-161100-
MARINE

STATION/POSITION TIME  TEMP    WIND        PRES    WAVE   SWELL
                       AIR SEA DIR/SP/G            HT/PER HT/PER
                 (UTC) (F)     (DEG/KT/KT) (MB)    (FT/S) (FT/S)
BRANDYWINE LGT   0942   33     290/ 21/ 23 1018.8R
CAPE MAY NJ      0948   34 41  300/ 18/ 23 1018.1R
LEWES DE         0948   30 41  270/ 11/ 13 1018.9R
15NM E FENWICK I 0950   38 51  280/ 19/ 25 1018.9R   4/ 4   2/19
OCEAN-CITY-INLET 0948   30 44  300/  6/  8 1020.0R
WACHAPREAGUE VA  0948   28 37  250/  1/  2 1020.1R
THOMAS POINT MD  1000   32 42  240/  9/ 10   N/A
GOOSES REEF MD   1000   34 45  260/ 10/ 12 1020.4    1/ 2
COVE POINT MD    0948   31     270/  7/ 10 1020.3R
SOLOMONS ISLAND  0948   31 45  320/  2/  4 1019.6R
BISHOPS HEAD MD  0948   36 33  270/ 14/ 16 1020.1R
PINEY POINT MD   0948          290/ 10/ 12   N/A
POTOMAC MD       1000   35 45  260/ 14/ 16 1019.6    1/ 2
CAMBRIDGE MD     0942   28 38              1020.1R
LEWISETTA VA     0948   30 38  260/  8/ 10 1020.4R
RAPPAHANNOCK LGT 0948          260/ 13/ 16 1020.8R
STINGRAY PT      1000   33 45  290/  8/ 10 1020.8
YORK RVR RNG VA  0948   34     290/ 11/ 13 1021.0R
YORKTOWN VA      0948   31 45  250/  3/  5 1020.5R
JAMESTOWN VA     1000      43  270/  6/  6   N/A     0
DOMINION TERM VA 0936   34     310/ 10/ 12 1020.8R
KIPTOPEKE VA     0948      42  310/ 17/ 19   N/A
CAPE HENRY VA    0948   32     240/  6/  8   N/A
WILLOUBY STN VA  0948          300/ 13/ 15 1020.5R
S CRANEY ISL VA  0948   31     260/  5/  7 1020.7R
CAPE HENRY BUOY  0930      52                N/A     3/ 5
1ST LANDING BUOY 1000   36 46  320/ 12/ 16 1020.7    1/ 3
CAPE CHARLES BUO 0951      50                N/A     2/ 3
64NM E OF VA BCH 0950   43 58  310/ 12/ 16 1019.9R   6/ 7   5/ 7
DUCK PIER NC     0948   35 51  300/ 11/ 12 1020.5R
44100 DUCK FRF   0945      54                N/A     3/ 5
44056 DUCK FRF   0930      54                N/A     2/ 6
OREGON INLET NC  0936   36 47  300/  7/ 10 1020.5R
HATTERAS NC      0948   39 54  320/ 15/ 18 1020.6R
DIAMOND SHLS NC  1000   44 73  330/ 14/ 19 1020.8
CAPE LOOKOUT NC  1000          340/ 12/ 14 1022.1R
$$




USA.gov is the U.S. government's official web portal to all federal, state and local government web resources and services.